Location: The Saddle
(36.8333°N, 80.3417°W)
Time: 08:42:51
(UTC-05:00)

Vanguard 2 Rocket - Pass Details

Date: 12 December 2023
Orbit: 555 x 3309 km, 32.9° (Epoch: 02 March)

Event Time Altitude Azimuth Distance (km) Brightness Sun altitude
Rises 18:27:56 0° 283° (WNW) 6,906 12.5 -16.0°
Reaches altitude 10° 18:32:31 10° 279° (W) 6,078 12.1 -16.9°
Maximum altitude 18:51:02 48° 213° (SSW) 3,860 10.3 -20.5°
Drops below altitude 10° 19:07:08 10° 145° (SE) 5,317 10.6 -23.6°
Sets 19:10:52 0° 140° (SE) 6,018 10.8 -24.4°
